カタログに戻る

DELTA 1 DEB *

運用中LEO
NORAD 10519·DEBRIS·🇺🇸 United States

打ち上げ Dec 15, 1977 から Cape Canaveral Space Force Station

Loading…

次のパス (今後24時間)

TLE

最新Source: Space-Track

元期: Sep 14, 2026, 00:02 UTC

1 10519U 77118C   26257.00151994  .00000324  00000-0  67042-4 0  9993
2 10519  29.0565 244.0798 0811314 171.5633 189.9511 13.30756784348129

AllMySatでDELTA 1 DEB *をリアルタイム追跡

Download on the App Store